Alabaster, AL

12:13 AM CDT on April 29, 2017 (GMT -0500)
Shelby County

Weather History for KEET - July, 2014

Change the Weather History Date:

Sunday, July 6, 2014

  Actual Average Record
Temperature  
Mean Temperature 79 °F 80 °F  
Max Temperature 90 °F 90 °F 102 °F (1977)
Min Temperature 68 °F 71 °F 52 °F (1970)
Cooling Degree Days 14 15  
Month to date cooling degree days 85 90  
Year to date cooling degree days 794 733  
Since 1 June cooling degree days 500 464  
Growing Degree Days 28 (Base 50)    
Moisture  
Dew Point 66 °F    
Average Humidity 65    
Maximum Humidity 90    
Minimum Humidity 39    
Precipitation  
Precipitation 0.00 in 0.15 in 2.23 in (2005)
Month to date precipitation 0.17 0.93  
Year to date precipitation 32.98 29.49  
Sea Level Pressure  
Sea Level Pressure 30.06 in    
Wind  
Wind Speed 3 mph (SE)    
Max Wind Speed 10 mph    
Max Gust Speed 13 mph    
Visibility 10 miles    
Events      
T = Trace of Precipitation, MM = Missing Value Source: NWS Daily Summary

Daily Weather History Graph

Daily Weather History Graph

Search for Another Location

Airport or City:

Trip Planner

Search our weather history database for the weather conditions in past years. The results will help you decide how hot, cold, wet, or windy it might be!

Date:

Astronomy

Jul. 06, 2014 Rise Set
Actual Time 5:43 AM CDT 7:59 PM CDT
Civil Twilight 5:15 AM CDT 8:28 PM CDT
Nautical Twilight 4:40 AM CDT 9:03 PM CDT
Astronomical Twilight 4:02 AM CDT 9:40 PM CDT
Moon 2:09 PM CDT (7/6) 12:50 AM CDT (7/6)
Length of Visible Light 15h 12m
Length of Day
14h 15m
Waxing Gibbous, 62% of the Moon is Illuminated
Jul 6
Waxing Gibbous
Jul 12
Full
Jul 18
Last Quarter
Jul 26
New
Aug 3
First Quarter

Hourly Weather History & Observations

Time (CDT) Temp. Heat Index Dew Point Humidity Pressure Visibility Wind Dir Wind Speed Gust Speed Precip Events Conditions
12:53 AM 70.0 °F - 66.0 °F 87% 30.10 in 10.0 mi Calm Calm - N/A   Partly Cloudy
1:53 AM 71.1 °F - 64.9 °F 81% 30.09 in 10.0 mi Calm Calm - N/A   Scattered Clouds
2:53 AM 71.1 °F - 62.1 °F 73% 30.07 in 10.0 mi Calm Calm - N/A   Partly Cloudy
3:53 AM 69.1 °F - 62.1 °F 78% 30.06 in 10.0 mi Calm Calm - N/A   Scattered Clouds
4:53 AM 71.1 °F - 61.0 °F 70% 30.07 in 10.0 mi East 3.5 mph - N/A   Mostly Cloudy
5:53 AM 71.1 °F - 61.0 °F 70% 30.09 in 10.0 mi Variable 3.5 mph - N/A   Mostly Cloudy
6:53 AM 71.1 °F - 63.0 °F 75% 30.09 in 10.0 mi Calm Calm - N/A   Overcast
7:53 AM 73.9 °F - 64.9 °F 73% 30.10 in 10.0 mi Variable 4.6 mph - N/A   Overcast
8:53 AM 75.9 °F - 68.0 °F 76% 30.11 in 9.0 mi Calm Calm - N/A   Clear
9:53 AM 78.1 °F - 70.0 °F 76% 30.10 in 10.0 mi ESE 4.6 mph - N/A   Mostly Cloudy
10:53 AM 80.1 °F 83.6 °F 71.1 °F 74% 30.10 in 10.0 mi East 4.6 mph - N/A   Mostly Cloudy
11:53 AM 82.0 °F 86.7 °F 72.0 °F 71% 30.09 in 10.0 mi South 4.6 mph - N/A   Mostly Cloudy
12:53 PM 84.9 °F 89.4 °F 70.0 °F 61% 30.08 in 10.0 mi Variable 3.5 mph - N/A   Mostly Cloudy
1:53 PM 87.1 °F 89.2 °F 66.0 °F 49% 30.05 in 10.0 mi SSE 6.9 mph - N/A   Clear
3:53 PM 88.0 °F 87.6 °F 60.1 °F 39% 30.02 in 10.0 mi Variable 3.5 mph - N/A   Partly Cloudy
4:53 PM 87.1 °F 87.8 °F 63.0 °F 44% 30.01 in 10.0 mi Variable 4.6 mph - N/A   Clear
5:53 PM 87.1 °F 86.5 °F 59.0 °F 39% 30.00 in 10.0 mi West 3.5 mph - N/A   Clear
6:53 PM 86.0 °F 88.2 °F 66.0 °F 51% 30.00 in 10.0 mi SE 6.9 mph - N/A   Clear
7:53 PM 81.0 °F 83.8 °F 68.0 °F 65% 30.02 in 10.0 mi Calm Calm - N/A   Partly Cloudy
8:53 PM 78.1 °F - 69.1 °F 74% 30.02 in 10.0 mi Calm Calm - N/A   Clear
9:53 PM 77.0 °F - 69.1 °F 76% 30.03 in 10.0 mi Calm Calm - N/A   Clear
10:53 PM 75.0 °F - 70.0 °F 84% 30.03 in 10.0 mi Calm Calm - N/A   Partly Cloudy
11:53 PM 73.9 °F - 70.0 °F 87% 30.03 in 9.0 mi Calm Calm - N/A   Partly Cloudy